Time,TemperatureF,DewpointF,PressureIn,WindDirection,WindDirectionDegrees,WindSpeedMPH,WindSpeedGustMPH,Humidity,HourlyPrecipIn,Conditions,Clouds,dailyrainin,SoftwareType,DateUTC
2013-02-20 00:02:00,41.2,35.0,30.22,East,86,0.0,0.0,78,0.00,,,0.00,weatherlink.com 1.10,2013-02-20 06:02:00,
2013-02-20 00:17:00,40.3,36.0,30.24,East,86,0.0,0.0,83,0.00,,,0.00,weatherlink.com 1.10,2013-02-20 06:17:00,
2013-02-20 00:32:00,40.1,34.0,30.24,East,93,0.0,2.0,80,0.00,,,0.00,weatherlink.com 1.10,2013-02-20 06:32:00,
2013-02-20 00:47:00,41.3,34.0,30.24,NNE,22,2.0,2.0,76,0.00,,,0.00,weatherlink.com 1.10,2013-02-20 06:47:00,
2013-02-20 01:02:00,41.5,34.0,30.23,ESE,106,0.0,1.0,76,0.00,,,0.00,weatherlink.com 1.10,2013-02-20 07:02:00,
2013-02-20 01:17:00,41.1,35.0,30.22,East,81,1.0,1.0,79,0.00,,,0.00,weatherlink.com 1.10,2013-02-20 07:17:00,
2013-02-20 01:32:00,41.5,35.0,30.23,ENE,77,0.0,0.0,78,0.00,,,0.00,weatherlink.com 1.10,2013-02-20 07:32:00,
2013-02-20 01:47:00,41.8,37.0,30.23,ENE,72,0.0,1.0,82,0.00,,,0.00,weatherlink.com 1.10,2013-02-20 07:47:00,
2013-02-20 02:17:00,41.9,35.0,30.21,East,96,2.0,8.0,76,0.00,,,0.00,weatherlink.com 1.10,2013-02-20 08:17:00,
2013-02-20 02:32:00,42.3,34.0,30.19,ENE,58,4.0,6.0,73,0.00,,,0.00,weatherlink.com 1.10,2013-02-20 08:32:00,
2013-02-20 02:47:00,42.9,33.0,30.17,ENE,63,5.0,10.0,68,0.00,,,0.00,weatherlink.com 1.10,2013-02-20 08:47:00,
2013-02-20 03:02:00,43.4,32.0,30.18,NE,53,7.0,11.0,64,0.00,,,0.00,weatherlink.com 1.10,2013-02-20 09:02:00,
2013-02-20 03:17:00,43.6,31.0,30.16,East,101,6.0,12.0,62,0.00,,,0.00,weatherlink.com 1.10,2013-02-20 09:17:00,
2013-02-20 03:33:00,43.7,31.0,30.15,East,89,4.0,8.0,61,0.00,,,0.00,weatherlink.com 1.10,2013-02-20 09:33:00,
2013-02-20 03:48:00,44.0,29.0,30.15,East,101,5.0,10.0,56,0.00,,,0.00,weatherlink.com 1.10,2013-02-20 09:48:00,
2013-02-20 04:03:00,43.8,28.0,30.16,ENE,62,2.0,8.0,55,0.00,,,0.00,weatherlink.com 1.10,2013-02-20 10:03:00,
2013-02-20 04:18:00,43.7,28.0,30.17,ENE,72,2.0,7.0,55,0.00,,,0.00,weatherlink.com 1.10,2013-02-20 10:18:00,
2013-02-20 04:33:00,43.2,30.0,30.18,ENE,76,1.0,4.0,59,0.00,,,0.00,weatherlink.com 1.10,2013-02-20 10:33:00,
2013-02-20 04:48:00,42.8,28.0,30.19,East,100,1.0,2.0,57,0.00,,,0.00,weatherlink.com 1.10,2013-02-20 10:48:00,
2013-02-20 05:03:00,41.6,29.0,30.20,East,100,0.0,0.0,62,0.00,,,0.00,weatherlink.com 1.10,2013-02-20 11:03:00,
2013-02-20 05:18:00,40.7,30.0,30.20,East,100,0.0,0.0,67,0.00,,,0.00,weatherlink.com 1.10,2013-02-20 11:18:00,
2013-02-20 05:33:00,39.8,32.0,30.21,East,101,0.0,0.0,73,0.00,,,0.00,weatherlink.com 1.10,2013-02-20 11:33:00,
2013-02-20 05:48:00,38.8,32.0,30.22,East,101,0.0,0.0,76,0.00,,,0.00,weatherlink.com 1.10,2013-02-20 11:48:00,
2013-02-20 06:03:00,38.4,31.0,30.23,East,101,0.0,0.0,76,0.00,,,0.00,weatherlink.com 1.10,2013-02-20 12:03:00,
2013-02-20 06:18:00,38.1,32.0,30.24,East,100,0.0,0.0,78,0.00,,,0.00,weatherlink.com 1.10,2013-02-20 12:18:00,
2013-02-20 06:33:00,37.6,33.0,30.23,East,100,0.0,0.0,82,0.00,,,0.00,weatherlink.com 1.10,2013-02-20 12:33:00,
2013-02-20 06:48:00,38.0,32.0,30.23,ENE,77,0.0,2.0,79,0.00,,,0.00,weatherlink.com 1.10,2013-02-20 12:48:00,
2013-02-20 07:03:00,38.2,32.0,30.24,East,86,0.0,1.0,78,0.00,,,0.00,weatherlink.com 1.10,2013-02-20 13:03:00,
2013-02-20 07:18:00,38.5,32.0,30.24,East,87,1.0,2.0,77,0.00,,,0.00,weatherlink.com 1.10,2013-02-20 13:18:00,
2013-02-20 07:33:00,40.8,32.0,30.23,ENE,77,2.0,7.0,72,0.00,,,0.00,weatherlink.com 1.10,2013-02-20 13:33:00,
2013-02-20 07:48:00,42.0,32.0,30.24,ENE,76,2.0,5.0,68,0.00,,,0.00,weatherlink.com 1.10,2013-02-20 13:48:00,
2013-02-20 08:03:00,42.0,32.0,30.25,East,84,4.0,4.0,68,0.00,,,0.00,weatherlink.com 1.10,2013-02-20 14:03:00,
2013-02-20 08:18:00,43.8,32.0,30.25,ENE,66,6.0,7.0,64,0.00,,,0.00,weatherlink.com 1.10,2013-02-20 14:18:00,
2013-02-20 08:33:00,44.9,32.0,30.25,East,94,2.0,9.0,61,0.00,,,0.00,weatherlink.com 1.10,2013-02-20 14:33:00,
2013-02-20 08:48:00,46.1,31.0,30.25,East,89,7.0,11.0,56,0.00,,,0.00,weatherlink.com 1.10,2013-02-20 14:48:00,
2013-02-20 09:03:00,47.6,31.0,30.25,NE,56,2.0,12.0,54,0.00,,,0.00,weatherlink.com 1.10,2013-02-20 15:03:00,
2013-02-20 09:18:00,48.8,32.0,30.25,ESE,122,10.0,10.0,52,0.00,,,0.00,weatherlink.com 1.10,2013-02-20 15:18:00,
2013-02-20 09:33:00,48.6,29.0,30.24,SE,139,5.0,13.0,47,0.00,,,0.00,weatherlink.com 1.10,2013-02-20 15:33:00,
2013-02-20 09:48:00,48.8,30.0,30.25,SSE,159,2.0,9.0,49,0.00,,,0.00,weatherlink.com 1.10,2013-02-20 15:48:00,
2013-02-20 10:03:00,50.4,30.0,30.23,ESE,103,5.0,11.0,46,0.00,,,0.00,weatherlink.com 1.10,2013-02-20 16:03:00,
2013-02-20 10:18:00,50.9,30.0,30.23,East,79,2.0,7.0,45,0.00,,,0.00,weatherlink.com 1.10,2013-02-20 16:18:00,
2013-02-20 10:33:00,51.5,30.0,30.22,ENE,74,8.0,8.0,44,0.00,,,0.00,weatherlink.com 1.10,2013-02-20 16:33:00,
2013-02-20 10:49:00,51.5,29.0,30.20,NE,53,7.0,13.0,42,0.00,,,0.00,weatherlink.com 1.10,2013-02-20 16:49:00,
2013-02-20 11:04:00,52.9,30.0,30.20,SE,132,10.0,11.0,42,0.00,,,0.00,weatherlink.com 1.10,2013-02-20 17:04:00,
2013-02-20 11:19:00,52.7,30.0,30.18,East,87,5.0,11.0,42,0.00,,,0.00,weatherlink.com 1.10,2013-02-20 17:19:00,
2013-02-20 11:34:00,53.1,30.0,30.16,ESE,113,6.0,11.0,41,0.00,,,0.00,weatherlink.com 1.10,2013-02-20 17:34:00,
2013-02-20 11:49:00,54.1,28.0,30.17,SE,128,5.0,11.0,37,0.00,,,0.00,weatherlink.com 1.10,2013-02-20 17:49:00,
2013-02-20 12:04:00,54.3,30.0,30.16,NNE,25,6.0,10.0,40,0.00,,,0.00,weatherlink.com 1.10,2013-02-20 18:04:00,
2013-02-20 12:19:00,55.1,30.0,30.15,ESE,105,6.0,9.0,39,0.00,,,0.00,weatherlink.com 1.10,2013-02-20 18:19:00,
2013-02-20 12:34:00,55.2,31.0,30.16,East,82,7.0,10.0,40,0.00,,,0.00,weatherlink.com 1.10,2013-02-20 18:34:00,
2013-02-20 12:49:00,56.0,31.0,30.13,East,99,5.0,15.0,38,0.00,,,0.00,weatherlink.com 1.10,2013-02-20 18:49:00,
2013-02-20 13:04:00,56.7,30.0,30.11,NE,46,4.0,10.0,36,0.00,,,0.00,weatherlink.com 1.10,2013-02-20 19:04:00,
2013-02-20 13:19:00,57.0,31.0,30.11,East,84,3.0,13.0,38,0.00,,,0.00,weatherlink.com 1.10,2013-02-20 19:19:00,
2013-02-20 13:34:00,57.2,30.0,30.11,NE,44,4.0,10.0,36,0.00,,,0.00,weatherlink.com 1.10,2013-02-20 19:34:00,
2013-02-20 13:49:00,57.5,29.0,30.10,East,89,8.0,13.0,34,0.00,,,0.00,weatherlink.com 1.10,2013-02-20 19:49:00,
2013-02-20 14:04:00,57.6,31.0,30.10,NE,55,4.0,8.0,36,0.00,,,0.00,weatherlink.com 1.10,2013-02-20 20:04:00,
2013-02-20 14:19:00,57.4,31.0,30.09,NE,53,3.0,7.0,37,0.00,,,0.00,weatherlink.com 1.10,2013-02-20 20:19:00,
2013-02-20 14:34:00,58.2,31.0,30.10,SE,132,2.0,8.0,36,0.00,,,0.00,weatherlink.com 1.10,2013-02-20 20:34:00,
2013-02-20 14:49:00,58.3,30.0,30.11,SE,126,3.0,8.0,34,0.00,,,0.00,weatherlink.com 1.10,2013-02-20 20:49:00,
2013-02-20 15:04:00,58.6,31.0,30.11,ENE,72,4.0,6.0,35,0.00,,,0.00,weatherlink.com 1.10,2013-02-20 21:04:00,
2013-02-20 15:19:00,58.5,31.0,30.10,ESE,106,5.0,7.0,35,0.00,,,0.00,weatherlink.com 1.10,2013-02-20 21:19:00,
2013-02-20 15:34:00,58.9,32.0,30.11,ENE,68,4.0,7.0,36,0.00,,,0.00,weatherlink.com 1.10,2013-02-20 21:34:00,
2013-02-20 15:49:00,59.9,32.0,30.11,ENE,70,4.0,7.0,35,0.00,,,0.00,weatherlink.com 1.10,2013-02-20 21:49:00,
2013-02-20 16:04:00,59.0,32.0,30.10,East,91,4.0,7.0,36,0.00,,,0.00,weatherlink.com 1.10,2013-02-20 22:04:00,
2013-02-20 16:19:00,59.0,33.0,30.11,ENE,65,3.0,6.0,37,0.00,,,0.00,weatherlink.com 1.10,2013-02-20 22:19:00,
2013-02-20 16:34:00,58.4,31.0,30.11,East,84,4.0,7.0,35,0.00,,,0.00,weatherlink.com 1.10,2013-02-20 22:34:00,
2013-02-20 16:49:00,58.2,32.0,30.11,ENE,74,3.0,6.0,37,0.00,,,0.00,weatherlink.com 1.10,2013-02-20 22:49:00,
2013-02-20 17:04:00,57.9,33.0,30.09,ESE,110,2.0,6.0,39,0.00,,,0.00,weatherlink.com 1.10,2013-02-20 23:04:00,
2013-02-20 17:19:00,57.2,32.0,30.09,East,79,2.0,6.0,38,0.00,,,0.00,weatherlink.com 1.10,2013-02-20 23:19:00,
2013-02-20 17:34:00,55.8,32.0,30.09,ESE,116,1.0,4.0,41,0.00,,,0.00,weatherlink.com 1.10,2013-02-20 23:34:00,
2013-02-20 17:49:00,54.4,33.0,30.08,ESE,117,2.0,5.0,45,0.00,,,0.00,weatherlink.com 1.10,2013-02-20 23:49:00,
2013-02-20 18:04:00,53.3,33.0,30.07,East,89,2.0,4.0,46,0.00,,,0.00,weatherlink.com 1.10,2013-02-21 00:04:00,
2013-02-20 18:19:00,52.4,34.0,30.06,East,91,2.0,5.0,49,0.00,,,0.00,weatherlink.com 1.10,2013-02-21 00:19:00,
2013-02-20 18:34:00,51.7,34.0,30.04,East,89,4.0,6.0,52,0.00,,,0.00,weatherlink.com 1.10,2013-02-21 00:34:00,
2013-02-20 18:49:00,51.5,33.0,30.05,ESE,103,4.0,8.0,50,0.00,,,0.00,weatherlink.com 1.10,2013-02-21 00:49:00,
2013-02-20 19:04:00,51.4,33.0,30.05,ESE,115,2.0,7.0,50,0.00,,,0.00,weatherlink.com 1.10,2013-02-21 01:04:00,
2013-02-20 19:19:00,50.9,33.0,30.06,East,101,1.0,4.0,50,0.00,,,0.00,weatherlink.com 1.10,2013-02-21 01:19:00,
2013-02-20 19:34:00,50.3,33.0,30.06,ESE,115,1.0,2.0,51,0.00,,,0.00,weatherlink.com 1.10,2013-02-21 01:34:00,
2013-02-20 19:49:00,49.7,33.0,30.07,ESE,116,0.0,2.0,54,0.00,,,0.00,weatherlink.com 1.10,2013-02-21 01:49:00,
2013-02-20 20:04:00,48.0,34.0,30.07,ESE,103,0.0,1.0,59,0.00,,,0.00,weatherlink.com 1.10,2013-02-21 02:04:00,
2013-02-20 20:19:00,47.3,35.0,30.06,ENE,69,0.0,2.0,63,0.00,,,0.00,weatherlink.com 1.10,2013-02-21 02:19:00,
2013-02-20 20:34:00,46.7,37.0,30.06,ESE,119,0.0,1.0,68,0.00,,,0.00,weatherlink.com 1.10,2013-02-21 02:34:00,
2013-02-20 20:49:00,46.5,38.0,30.06,ENE,61,1.0,3.0,72,0.00,,,0.00,weatherlink.com 1.10,2013-02-21 02:49:00,
2013-02-20 21:04:00,46.7,38.0,30.06,ENE,74,2.0,2.0,72,0.00,,,0.00,weatherlink.com 1.10,2013-02-21 03:04:00,
2013-02-20 21:19:00,46.0,38.0,30.06,ESE,104,0.0,2.0,74,0.00,,,0.00,weatherlink.com 1.10,2013-02-21 03:19:00,
2013-02-20 21:34:00,46.1,38.0,30.06,East,98,2.0,2.0,74,0.00,,,0.00,weatherlink.com 1.10,2013-02-21 03:34:00,
2013-02-20 21:49:00,46.3,39.0,30.05,East,79,0.0,2.0,75,0.00,,,0.00,weatherlink.com 1.10,2013-02-21 03:49:00,
2013-02-20 22:04:00,46.9,39.0,30.05,ENE,71,1.0,4.0,74,0.00,,,0.00,weatherlink.com 1.10,2013-02-21 04:04:00,
2013-02-20 22:19:00,47.3,39.0,30.04,ENE,63,3.0,7.0,72,0.00,,,0.00,weatherlink.com 1.10,2013-02-21 04:19:00,
2013-02-20 22:34:00,47.6,39.0,30.04,ENE,77,3.0,6.0,72,0.00,,,0.00,weatherlink.com 1.10,2013-02-21 04:34:00,
2013-02-20 22:50:00,47.8,38.0,30.04,East,101,2.0,5.0,70,0.00,,,0.00,weatherlink.com 1.10,2013-02-21 04:50:00,
2013-02-20 23:05:00,48.0,38.0,30.04,East,94,3.0,9.0,68,0.00,,,0.00,weatherlink.com 1.10,2013-02-21 05:05:00,
2013-02-20 23:20:00,48.1,38.0,30.04,East,86,2.0,6.0,67,0.00,,,0.00,weatherlink.com 1.10,2013-02-21 05:20:00,
2013-02-20 23:35:00,48.3,37.0,30.04,East,90,3.0,5.0,65,0.00,,,0.00,weatherlink.com 1.10,2013-02-21 05:35:00,
2013-02-20 23:50:00,48.3,37.0,30.03,ENE,64,2.0,6.0,65,0.00,,,0.00,weatherlink.com 1.10,2013-02-21 05:50:00,